Home   Weather   Austin   Past weeks
Flag for USA

Past Weather in Austin, Texas, USA — Yesterday and Last 2 Weeks

Now
76 °F

Mostly cloudy.


Feels Like: 77 °F
Forecast: 89 / 75 °F
Wind: 6 mph from North

Location: Camp Mabry / Austin City

Current Time: May 25, 2019 at 6:16:56 am

Latest Report: May 25, 2019 at 5:51 am


Visibility: 10 mi

Pressure: 29.96 "Hg

Humidity: 82%

Dew Point: 70 °F

Location of AustinLocation

Past Weather in Austin — Graph

°F

Austin Temperature Yesterday

Maximum temperature yesterday: 89 °F (at 3:51 pm)
Minimum temperature yesterday: 76 °F (at 11:59 pm)
Average temperature yesterday: 81 °F

High & Low Weather Summary for the Past Weeks

 TemperatureHumidityPressure
High92 °F (May 23, 4:51 pm)93% (May 11, 1:51 am)30.08 "Hg (May 11, 1:51 am)
Low55 °F (May 10, 6:51 am)30% (May 21, 4:51 pm)29.52 "Hg (May 21, 2:51 am)
Average75 °F72%29.86 "Hg
* Reported May 10 4:51 am — May 25 4:51 am, Austin. Weather by CustomWeather, © 2019

Note: Actual official high and low records may vary slightly from our data, if they occured in-between our weather recording intervals... More about our weather records

Advertising

Austin Weather History for the Previous 24 Hours

Scroll right to see more
 ConditionsComfort  
Time TempWeatherWind HumidityBarometerVisibility
4:51 am
Sat, May 25
76 °FMostly cloudy.5 mph82%29.95 "Hg10 mi
4:08 am76 °FMostly cloudy.6 mph82%29.98 "Hg10 mi
3:51 am76 °FOvercast.7 mph82%29.94 "Hg10 mi
3:38 am76 °FMostly cloudy.8 mph82%29.98 "Hg10 mi
2:51 am76 °FMostly cloudy.14 mph82%29.93 "Hg10 mi
2:17 am76 °FMostly cloudy.9 mph82%29.98 "Hg10 mi
1:51 am76 °FMostly cloudy.7 mph80%29.94 "Hg10 mi
1:23 am75 °FMostly cloudy.7 mph82%29.98 "Hg10 mi
1:09 am75 °FOvercast.8 mph79%29.98 "Hg10 mi
12:51 am75 °FPassing clouds.9 mph79%29.94 "Hg10 mi
11:59 pm
Fri, May 24
76 °FPassing clouds.8 mph74%30.01 "Hg10 mi
10:51 pm77 °FClear.9 mph69%29.96 "Hg10 mi
9:51 pm79 °FClear.7 mph65%29.94 "Hg10 mi
8:51 pm81 °FClear.8 mph60%29.93 "Hg10 mi
7:51 pm83 °FSunny.10 mph55%29.91 "Hg10 mi
6:51 pm86 °FPassing clouds.9 mph49%29.90 "Hg10 mi
5:51 pm87 °FScattered clouds.17 mph53%29.89 "Hg10 mi
4:51 pm89 °FScattered clouds.12 mph48%29.90 "Hg10 mi
3:51 pm89 °FScattered clouds.9 mph50%29.93 "Hg10 mi
2:51 pm87 °FBroken clouds.9 mph53%29.95 "Hg10 mi
1:51 pm86 °FBroken clouds.12 mph57%29.97 "Hg10 mi
12:51 pm87 °FScattered clouds.13 mph55%29.98 "Hg10 mi
11:51 am85 °FBroken clouds.10 mph59%29.99 "Hg10 mi
10:51 am83 °FScattered clouds.6 mph68%29.98 "Hg10 mi
9:51 am81 °FPartly sunny.10 mph72%29.98 "Hg10 mi
8:51 am79 °FMore clouds than sun.9 mph77%29.97 "Hg10 mi
7:51 am78 °FMostly cloudy.5 mph79%29.96 "Hg10 mi
7:09 am78 °FMostly cloudy.8 mph79%29.98 "Hg10 mi
6:51 am78 °FOvercast.7 mph79%29.93 "Hg10 mi
6:29 am78 °FMostly cloudy.12 mph79%29.96 "Hg10 mi
Weather by CustomWeather, © 2019

See weather overview